Other Surface Observations
Issued by NWS Tucson, AZ

Home | Current Version | Previous Version | Text Only | Print | Product List | Glossary On
Versions: 1 2 3 4 5 6 7 8 9 10 11 12 13 14 15 16 17 18 19 20 21 22 23 24 25 26 27 28 29 30 31 32 33 34 35 36 37 38 39 40 41 42 43 44 45 46 47 48 49 50
000
SXUS55 KTWC 170545
OSOTWC

WEATHER ROUNDUP FOR SOUTHEAST ARIZONA
NATIONAL WEATHER SERVICE TUCSON AZ
1045 PM MST SAT FEB 16 2019

AZZ504>506-514-170645-
LOCATION       SKY/WX    TMP DP  RH WIND       PRES   REMARKS
TUCSON         FAIR      48  29  47 W9        29.98R
DAVIS-MONTHAN  FAIR      47  30  52 NW10      29.96S
CHILDRENS PARK N/A      N/A N/A  47 NW4               PIMA CO DEQ
ALVERNON/22ND  N/A       52 N/A N/A NW4               PIMA CO DEQ
CHERRY/GLENN   N/A      N/A N/A N/A N/A               PIMA CO DEQ
TANGERINE      N/A       49 N/A N/A NW5               PIMA CO DEQ
CONTL RANCH    N/A       49  33  54 NW4               PIMA CO DEQ
GRANT/1ST      N/A       51  30  44 W4                PIMA CO DEQ
CRAYCROFT/22ND N/A       52  29  41 W6                PIMA CO DEQ
GOLFLINKS/KOLB N/A      N/A N/A N/A N/A               PIMA CO DEQ
AJO/12TH       N/A       53  29  40 W3                PIMA CO DEQ
FAIRGROUNDS    N/A       47 N/A N/A W6                PIMA CO DEQ
SAGUARO        N/A       49  28  44 NW3G13            *SABINO CYN
SAN CARLOS     N/A       44  32  62 CALM              *SAN CARLOS
GREEN VALLEY   N/A       50  31  47 W5                PIMA CO DEQ
HORSE CAMP CYN N/A       41  26  56 W7G13             *ARAVAIPA CYN
RINCON MTNS    N/A       24  20  85 W4G14             *NR MANNING CAMP
$$

AZZ509>511-170645-
LOCATION       SKY/WX    TMP DP  RH WIND       PRES   REMARKS
SAFFORD        FAIR      46  27  47 NW13      29.91S
STRAY HORSE    N/A       24  19  82 W5G23             *
TRAIL CABIN    N/A       32  24  72 W3G12             *N OF GRANVILLE
BLACK HILLS    N/A       43  28  56 NW5               *N OF FT THOMAS
DRY LAKE       N/A       26  23  89 W4G11             *NATANES MTNS
NOON CREEK     N/A       40  23  50 S8G19             *PINALENO MTNS
COLUMBINE      N/A       18  16  93 SW11G21           *PINALENO MTNS
GUTHRIE        N/A       31  21  67 NW16G30           *SW OF GUTHRIE
$$

AZZ502-503-513-170645-
LOCATION       SKY/WX    TMP DP  RH WIND       PRES   REMARKS
NOGALES        FAIR      41  29  62 CALM      29.97R
SELLS          N/A       44  34  69 E2                *
SASABE         N/A       46  29  51 SW3               *ALTAR VLY
HOPKINS        N/A       30  25  83 NW10G17           *SANTA RITA MTNS
CARR CYN       N/A       35  24  65 S2                *W OF HEREFORD
$$

AZZ507-508-512-170645-
LOCATION       SKY/WX    TMP DP  RH WIND       PRES   REMARKS
SIERRA VISTA   FAIR      39  28  63 W8        29.96S WCI  34
DOUGLAS        FAIR      42  27  55 NW13      29.95R
EMPIRE MTNS    N/A       39  27  61 W5G10             *LAS CIENEGAS NCA
MULESHOE RANCH N/A       41  26  55 NW8G13            *PRESERVE
HEADQUARTERS   N/A       36  25  64 SW2               *CHIRICAHUA MTNS
$$

.............................NOTES.............................
THIS IS AN AUTOMATED COLLECTIVE WITH MINIMAL QUALITY CONTROL.
PIMA CO DEQ SITES HAVE NONSTANDARD WIND SENSOR HEIGHTS.
PIMA CO DEQ SITES DO NOT REPORT WIND GUSTS.
* INDICATES WIND SENSORS LOCATED AT 20 FEET INSTEAD OF 33 FEET.
..............................KEY..............................
SKY/WX - SKY CONDITION/WEATHER
TMP    - TEMPERATURE IN FAHRENHEIT
DP     - DEWPOINT IN FAHRENHEIT
RH     - RELATIVE HUMIDITY IN PERCENT
WIND   - DIRECTION AND SPEED IN MILES PER HOUR (MPH)
VRB    - VARIABLE WIND DIRECTION
PRES   - MEAN SEA LEVEL PRESSURE IN INCHES OF MERCURY
         F - FALLING PRESSURE   R - RISING PRESSURE
         S - STEADY PRESSURE
VSB    - VISIBILITY IN MILES
HX     - HEAT INDEX IN FAHRENHEIT
WCI    - WIND CHILL INDEX IN FAHRENHEIT
N/A    - NOT AVAILABLE
AFB    - AIR FORCE BASE
         DAVIS-MONTHAN IS DAVIS-MONTHAN AIR FORCE BASE
CYN    - CANYON
MTNS   - MOUNTAINS
NCA    - NATIONAL CONSERVATION AREA
NR     - NEAR
VLY    - VALLEY
CONTL  - CONTINENTAL
PIMA CO DEQ - PIMA COUNTY DEPT OF ENVIRONMENTAL QUALITY


USA.gov is the U.S. government's official web portal to all federal, state and local government web resources and services.